CW2551 Weather Reports


Display with metric or nautical units.
time (UTC)temp
F
wind
direction
speed
MPH
gust
MPH
rain 1hr
in
rain 24hr
in
rain mn
in
humidity
%
barometer
mb
20260904212103 64 253 0.0 3.0 0.00 0.00 0.00 59 1013.0
20260904211604 65 4 0.0 0.0 0.00 0.00 0.00 58 1013.0
20260904211104 65 355 2.0 3.0 0.00 0.00 0.00 59 1013.0
20260904211022 65 342 2.0 5.0 0.00 0.00 0.00 59 1013.0
20260904210603 65 342 2.0 5.0 0.00 0.00 0.00 59 1013.0
20260904210104 64 19 0.0 3.0 0.00 0.00 0.00 59 1013.0
20260904210024 64 328 0.0 5.0 0.00 0.00 0.00 63 1013.2
20260904205104 64 56 0.0 0.0 0.00 0.00 0.00 62 1013.1
20260904205023 64 63 0.0 0.0 0.00 0.00 0.00 65 1013.1
20260904204604 64 63 0.0 0.0 0.00 0.00 0.00 65 1013.1
20260904204103 64 63 0.0 0.0 0.00 0.00 0.00 63 1013.1
20260904204022 64 65 0.0 0.0 0.00 0.00 0.00 66 1013.1
20260904203604 64 65 0.0 0.0 0.00 0.00 0.00 66 1013.1
20260904203104 63 66 1.0 2.0 0.00 0.00 0.00 62 1013.1
20260904203024 63 53 0.0 3.0 0.00 0.00 0.00 64 1013.1
20260904202103 63 52 1.0 3.0 0.00 0.00 0.00 63 1013.1
20260904202022 63 59 1.0 3.0 0.00 0.00 0.00 63 1013.2
20260904201604 63 59 1.0 3.0 0.00 0.00 0.00 63 1013.2
20260904201022 63 62 0.0 2.0 0.00 0.00 0.00 62 1013.1
20260904200603 63 62 0.0 2.0 0.00 0.00 0.00 62 1013.1
20260904200025 62 55 0.0 0.0 0.00 0.00 0.00 64 1013.2
20260904195604 62 55 0.0 0.0 0.00 0.00 0.00 64 1013.2
20260904195104 62 53 0.0 0.0 0.00 0.00 0.00 65 1013.3
20260904195022 62 54 0.0 0.0 0.00 0.00 0.00 67 1013.4
20260904194604 62 54 0.0 0.0 0.00 0.00 0.00 67 1013.4
20260904194103 62 58 0.0 0.0 0.00 0.00 0.00 65 1013.4
20260904194022 62 59 1.0 3.0 0.00 0.00 0.00 66 1013.4
20260904193603 62 59 1.0 3.0 0.00 0.00 0.00 66 1013.4
20260904193104 61 292 0.0 0.0 0.00 0.00 0.00 66 1013.4
20260904193024 61 289 0.0 0.0 0.00 0.00 0.00 66 1013.6
20260904192604 61 289 0.0 0.0 0.00 0.00 0.00 66 1013.6
20260904192104 62 288 0.0 0.0 0.00 0.00 0.00 66 1013.6
20260904192022 61 277 0.0 2.0 0.00 0.00 0.00 67 1013.5
20260904191604 61 277 0.0 2.0 0.00 0.00 0.00 67 1013.5
20260904191103 62 272 1.0 3.0 0.00 0.00 0.00 67 1013.6
20260904191023 62 350 2.0 3.0 0.00 0.00 0.00 68 1013.6
20260904190604 62 350 2.0 3.0 0.00 0.00 0.00 68 1013.6
20260904190104 61 4 0.0 2.0 0.00 0.00 0.00 68 1013.7
20260904190025 60 11 2.0 3.0 0.00 0.00 0.00 70 1013.7
20260904185604 60 11 2.0 3.0 0.00 0.00 0.00 70 1013.7
20260904185103 59 341 0.0 0.0 0.00 0.00 0.00 71 1013.8
20260904185023 59 342 0.0 3.0 0.00 0.00 0.00 72 1013.7
20260904184022 59 339 0.0 0.0 0.00 0.00 0.00 73 1013.7
20260904183604 59 339 0.0 0.0 0.00 0.00 0.00 73 1013.7
20260904183103 59 347 0.0 0.0 0.00 0.00 0.00 72 1013.7
20260904183025 59 334 0.0 0.0 0.00 0.00 0.00 73 1013.7
20260904182604 59 334 0.0 0.0 0.00 0.00 0.00 73 1013.7
20260904181105 59 326 0.0 0.0 0.00 0.00 0.00 73 1013.7
20260904181022 58 277 0.0 0.0 0.00 0.00 0.00 75 1013.5
20260904180104 58 281 0.0 1.0 0.00 0.00 0.00 75 1013.5
20260904180024 58 270 0.0 3.0 0.00 0.00 0.00 74 1013.5
20260904175104 58 358 1.0 5.0 0.00 0.00 0.00 74 1013.5
20260904175022 58 16 1.0 3.0 0.00 0.00 0.00 76 1013.4
20260904174604 58 16 1.0 3.0 0.00 0.00 0.00 76 1013.4
20260904174103 57 268 0.0 0.0 0.00 0.00 0.00 77 1013.4
20260904174022 57 307 0.0 1.0 0.00 0.00 0.00 77 1013.4
20260904173604 57 307 0.0 1.0 0.00 0.00 0.00 77 1013.4
20260904173025 58 347 0.0 2.0 0.00 0.00 0.00 78 1013.3
20260904172604 58 347 0.0 2.0 0.00 0.00 0.00 78 1013.3
20260904172104 57 3 2.0 3.0 0.00 0.00 0.00 77 1013.2
20260904172022 57 359 0.0 3.0 0.00 0.00 0.00 77 1013.3
20260904171604 57 359 0.0 3.0 0.00 0.00 0.00 77 1013.3
20260904171104 57 347 1.0 5.0 0.00 0.00 0.00 78 1013.2
20260904171023 56 249 0.0 0.0 0.00 0.00 0.00 80 1013.2
20260904170105 55 246 0.0 0.0 0.00 0.00 0.00 81 1013.2
20260904170024 55 246 0.0 0.0 0.00 0.00 0.00 81 1013.1
20260904165604 55 246 0.0 0.0 0.00 0.00 0.00 81 1013.1
20260904165104 55 246 0.0 0.0 0.00 0.00 0.00 82 1013.2
20260904165022 55 246 0.0 0.0 0.00 0.00 0.00 82 1013.1
20260904164603 55 246 0.0 0.0 0.00 0.00 0.00 82 1013.1
20260904164104 55 247 0.0 0.0 0.00 0.00 0.00 82 1013.1
20260904164022 54 241 0.0 0.0 0.00 0.00 0.00 81 1013.1
20260904163604 54 241 0.0 0.0 0.00 0.00 0.00 81 1013.1
20260904163103 54 232 0.0 0.0 0.00 0.00 0.00 81 1013.1
20260904163023 54 232 0.0 0.0 0.00 0.00 0.00 81 1013.1
20260904162603 54 232 0.0 0.0 0.00 0.00 0.00 81 1013.1
20260904162104 54 226 0.0 0.0 0.00 0.00 0.00 81 1013.0
20260904162022 54 195 0.0 0.0 0.00 0.00 0.00 81 1013.1
20260904161604 54 195 0.0 0.0 0.00 0.00 0.00 81 1013.1
20260904161104 54 194 0.0 0.0 0.00 0.00 0.00 82 1013.0
20260904161022 54 194 0.0 0.0 0.00 0.00 0.00 82 1013.0
20260904160604 54 194 0.0 0.0 0.00 0.00 0.00 82 1013.0
20260904160104 54 182 0.0 0.0 0.00 0.00 0.00 82 1013.0
20260904160025 54 182 0.0 0.0 0.00 0.00 0.00 83 1013.0
20260904155604 54 182 0.0 0.0 0.00 0.00 0.00 83 1013.0
20260904155103 54 187 0.0 0.0 0.00 0.00 0.00 84 1013.0
20260904155023 53 144 0.0 1.0 0.00 0.00 0.00 84 1012.9
20260904154604 53 144 0.0 1.0 0.00 0.00 0.00 84 1012.9
20260904154104 53 135 0.0 0.0 0.00 0.00 0.00 85 1012.8
20260904154023 53 135 0.0 0.0 0.00 0.00 0.00 86 1012.8
20260904153604 53 135 0.0 0.0 0.00 0.00 0.00 86 1012.8
20260904153104 52 137 0.0 0.0 0.00 0.00 0.00 87 1012.8
20260904152604 52 140 0.0 0.0 0.00 0.00 0.00 88 1012.8
20260904152104 52 140 0.0 0.0 0.00 0.00 0.00 89 1012.7
20260904152022 51 140 0.0 0.0 0.00 0.00 0.00 89 1012.7
20260904151604 51 140 0.0 0.0 0.00 0.00 0.00 89 1012.7
20260904151104 51 140 0.0 0.0 0.00 0.00 0.00 90 1012.7
20260904151022 51 140 0.0 0.0 0.00 0.00 0.00 91 1012.6
20260904150604 51 140 0.0 0.0 0.00 0.00 0.00 91 1012.6
20260904150104 51 140 0.0 0.0 0.00 0.00 0.00 91 1012.5
20260904150024 50 140 0.0 0.0 0.00 0.00 0.00 91 1012.4
20260904145604 50 140 0.0 0.0 0.00 0.00 0.00 91 1012.4
20260904145103 50 140 0.0 0.0 0.00 0.00 0.00 91 1012.4
20260904145022 50 140 0.0 0.0 0.00 0.00 0.00 91 1012.4
20260904144604 50 140 0.0 0.0 0.00 0.00 0.00 91 1012.4
20260904144104 49 140 0.0 0.0 0.00 0.00 0.00 91 1012.4
20260904144021 49 140 0.0 0.0 0.00 0.00 0.00 91 1012.3
20260904143603 49 140 0.0 0.0 0.00 0.00 0.00 91 1012.3
20260904143104 49 140 0.0 0.0 0.00 0.00 0.00 90 1012.3
20260904142604 49 140 0.0 0.0 0.00 0.00 0.00 90 1012.2
20260904142104 49 140 0.0 0.0 0.00 0.00 0.00 90 1012.2
20260904142021 49 140 0.0 0.0 0.00 0.00 0.00 90 1012.2
20260904141603 49 140 0.0 0.0 0.00 0.00 0.00 90 1012.2
20260904141103 49 140 0.0 0.0 0.00 0.00 0.00 90 1012.1
20260904141022 49 140 0.0 0.0 0.00 0.00 0.00 90 1012.1
20260904140104 49 140 0.0 0.0 0.00 0.00 0.00 90 1012.0
20260904140022 49 140 0.0 0.0 0.00 0.00 0.00 90 1012.0
20260904135604 49 140 0.0 0.0 0.00 0.00 0.00 90 1012.0
20260904135022 49 140 0.0 0.0 0.00 0.00 0.00 90 1011.9
20260904134604 49 140 0.0 0.0 0.00 0.00 0.00 90 1011.9
20260904134104 49 140 0.0 0.0 0.00 0.00 0.00 90 1011.8
20260904134021 49 140 0.0 0.0 0.00 0.00 0.00 90 1011.9
20260904133603 49 140 0.0 0.0 0.00 0.00 0.00 90 1011.9
20260904133104 49 140 0.0 0.0 0.00 0.00 0.00 90 1011.8
20260904133022 49 140 0.0 0.0 0.00 0.00 0.00 90 1011.8
20260904132604 49 140 0.0 0.0 0.00 0.00 0.00 90 1011.8
20260904132104 49 140 0.0 0.0 0.00 0.00 0.00 90 1011.7
20260904131604 49 140 0.0 0.0 0.00 0.00 0.00 90 1011.7
20260904131104 49 140 0.0 0.0 0.00 0.00 0.00 90 1011.7
20260904131023 49 140 0.0 0.0 0.00 0.00 0.00 90 1011.7
20260904130604 49 140 0.0 0.0 0.00 0.00 0.00 90 1011.7
20260904130104 49 140 0.0 0.0 0.00 0.00 0.00 90 1011.7
20260904130022 49 140 0.0 0.0 0.00 0.00 0.00 90 1011.6
20260904125604 49 140 0.0 0.0 0.00 0.00 0.00 90 1011.6
20260904125104 49 140 0.0 0.0 0.00 0.00 0.00 90 1011.6
20260904125022 49 140 0.0 0.0 0.00 0.00 0.00 90 1011.7
20260904124604 49 140 0.0 0.0 0.00 0.00 0.00 90 1011.7
20260904124104 49 140 0.0 0.0 0.00 0.00 0.00 90 1011.6
20260904124021 49 140 0.0 0.0 0.00 0.00 0.00 90 1011.6
20260904123603 49 140 0.0 0.0 0.00 0.00 0.00 90 1011.6
20260904123021 49 140 0.0 0.0 0.00 0.00 0.00 90 1011.5
20260904122604 49 140 0.0 0.0 0.00 0.00 0.00 90 1011.5
20260904122104 49 140 0.0 0.0 0.00 0.00 0.00 90 1011.5
20260904122021 49 140 0.0 0.0 0.00 0.00 0.00 90 1011.4
20260904121021 49 140 0.0 0.0 0.00 0.00 0.00 90 1011.4
20260904120604 49 140 0.0 0.0 0.00 0.00 0.00 90 1011.4
20260904120104 49 140 0.0 0.0 0.00 0.00 0.00 90 1011.4
20260904120022 49 140 0.0 0.0 0.00 0.00 0.00 90 1011.3
20260904115604 49 140 0.0 0.0 0.00 0.00 0.00 90 1011.3
20260904115104 49 140 0.0 0.0 0.00 0.00 0.00 90 1011.3
20260904115022 49 140 0.0 0.0 0.00 0.00 0.00 90 1011.4
20260904114104 49 140 0.0 0.0 0.00 0.00 0.00 90 1011.2
20260904114021 49 140 0.0 0.0 0.00 0.00 0.00 90 1011.3
20260904113604 49 140 0.0 0.0 0.00 0.00 0.00 90 1011.3
20260904113022 49 140 0.0 0.0 0.00 0.00 0.00 90 1011.3
20260904112103 49 140 0.0 0.0 0.00 0.00 0.00 90 1011.2
20260904112022 49 140 0.0 0.0 0.00 0.00 0.00 90 1011.2
20260904111604 49 140 0.0 0.0 0.00 0.00 0.00 90 1011.2
20260904111103 49 140 0.0 0.0 0.00 0.00 0.00 90 1011.2
20260904111022 49 140 0.0 0.0 0.00 0.00 0.00 90 1011.2
20260904110604 49 140 0.0 0.0 0.00 0.00 0.00 90 1011.2
20260904110104 49 140 0.0 0.0 0.00 0.00 0.00 89 1011.2
20260904110022 49 140 0.0 0.0 0.00 0.00 0.00 89 1011.2
20260904105604 49 140 0.0 0.0 0.00 0.00 0.00 89 1011.2
20260904105103 49 140 0.0 0.0 0.00 0.00 0.00 89 1011.2
20260904105021 48 140 0.0 0.0 0.00 0.00 0.00 89 1011.2
20260904104604 48 140 0.0 0.0 0.00 0.00 0.00 89 1011.2
20260904104104 48 140 0.0 0.0 0.00 0.00 0.00 89 1011.1
20260904104022 48 140 0.0 0.0 0.00 0.00 0.00 89 1011.1
20260904103604 48 140 0.0 0.0 0.00 0.00 0.00 89 1011.1
20260904103104 48 140 0.0 0.0 0.00 0.00 0.00 89 1011.1
20260904103021 48 140 0.0 0.0 0.00 0.00 0.00 89 1011.1
20260904102604 48 140 0.0 0.0 0.00 0.00 0.00 89 1011.1
20260904102104 48 140 0.0 0.0 0.00 0.00 0.00 89 1011.1
20260904102022 48 140 0.0 0.0 0.00 0.00 0.00 89 1011.0
20260904101603 48 140 0.0 0.0 0.00 0.00 0.00 89 1011.0
20260904101104 48 140 0.0 0.0 0.00 0.00 0.00 89 1011.1
20260904101022 48 140 0.0 0.0 0.00 0.00 0.00 89 1011.0
20260904100604 48 140 0.0 0.0 0.00 0.00 0.00 89 1011.0
20260904100104 48 140 0.0 0.0 0.00 0.00 0.00 89 1011.1
20260904095604 48 140 0.0 0.0 0.00 0.00 0.00 88 1011.0
20260904095104 49 140 0.0 0.0 0.00 0.00 0.00 88 1011.1
20260904095021 48 140 0.0 0.0 0.00 0.00 0.00 88 1011.0
20260904094604 48 140 0.0 0.0 0.00 0.00 0.00 88 1011.0
20260904094104 49 140 0.0 0.0 0.00 0.00 0.00 88 1010.8
20260904094021 49 140 0.0 0.0 0.00 0.00 0.00 88 1011.0
20260904093603 49 140 0.0 0.0 0.00 0.00 0.00 88 1011.0
20260904093104 49 140 0.0 0.0 0.00 0.00 0.00 88 1011.1
20260904093022 49 140 0.0 0.0 0.00 0.00 0.00 88 1011.2
20260904092604 49 140 0.0 0.0 0.00 0.00 0.00 88 1011.2
20260904092103 48 140 0.0 0.0 0.00 0.00 0.00 87 1011.2
20260904092022 49 140 0.0 0.0 0.00 0.00 0.00 87 1011.0
20260904091603 49 140 0.0 0.0 0.00 0.00 0.00 87 1011.0
20260904091104 49 140 0.0 0.0 0.00 0.00 0.00 87 1011.0
20260904091021 48 140 0.0 0.0 0.00 0.00 0.00 87 1011.2
20260904090604 48 140 0.0 0.0 0.00 0.00 0.00 87 1011.2
20260904090104 49 140 0.0 0.0 0.00 0.00 0.00 87 1011.3
20260904090022 49 140 0.0 0.0 0.00 0.00 0.00 87 1011.3
20260904085104 49 140 0.0 0.0 0.00 0.00 0.00 87 1011.2
20260904085021 49 140 0.0 0.0 0.00 0.00 0.00 86 1011.3
20260904084603 49 140 0.0 0.0 0.00 0.00 0.00 86 1011.3
20260904084103 49 140 0.0 0.0 0.00 0.00 0.00 86 1011.2
20260904084022 49 140 0.0 0.0 0.00 0.00 0.00 86 1011.3
20260904083604 49 140 0.0 0.0 0.00 0.00 0.00 86 1011.3
20260904083022 49 140 0.0 0.0 0.00 0.00 0.00 86 1011.3
20260904082022 49 140 0.0 0.0 0.00 0.00 0.00 86 1011.3
20260904081104 49 140 0.0 0.0 0.00 0.00 0.00 85 1011.2
20260904081022 49 140 0.0 0.0 0.00 0.00 0.00 85 1011.3
20260904080604 49 140 0.0 0.0 0.00 0.00 0.00 85 1011.3
20260904080104 49 140 0.0 0.0 0.00 0.00 0.00 85 1011.2
20260904080021 49 140 0.0 0.0 0.00 0.00 0.00 85 1011.1
20260904075605 49 140 0.0 0.0 0.00 0.00 0.00 85 1011.1
20260904075104 49 140 0.0 0.0 0.00 0.00 0.00 85 1011.2
20260904074604 49 140 0.0 0.0 0.00 0.00 0.00 85 1011.3
20260904074022 49 140 0.0 0.0 0.00 0.01 0.00 85 1011.3
20260904073604 49 140 0.0 0.0 0.00 0.01 0.00 85 1011.3
20260904073104 49 140 0.0 0.0 0.00 0.02 0.00 85 1011.2
20260904073022 49 140 0.0 0.0 0.00 0.02 0.00 85 1011.2
20260904072604 49 140 0.0 0.0 0.00 0.02 0.00 85 1011.2
20260904072103 49 140 0.0 0.0 0.00 0.02 0.00 85 1011.2
20260904071604 49 140 0.0 0.0 0.00 0.03 0.00 84 1011.2
20260904071104 50 140 0.0 0.0 0.00 0.03 0.00 84 1011.2
20260904070604 50 140 0.0 0.0 0.00 0.03 0.00 84 1011.2
20260904070104 50 140 0.0 0.0 0.00 0.03 0.00 84 1011.2
20260904070021 50 140 0.0 0.0 0.00 0.03 0.03 83 1011.2
20260904065604 50 140 0.0 0.0 0.00 0.03 0.03 83 1011.2
20260904064104 51 140 0.0 0.0 0.00 0.03 0.03 83 1010.9
20260904064022 51 140 0.0 0.0 0.00 0.03 0.03 83 1010.9
20260904063604 51 140 0.0 0.0 0.00 0.03 0.03 83 1010.9
20260904063104 51 140 0.0 0.0 0.00 0.04 0.03 82 1010.8
20260904063022 51 140 0.0 0.0 0.00 0.04 0.03 82 1010.8
20260904062604 51 140 0.0 0.0 0.00 0.04 0.03 82 1010.8
20260904062103 51 140 0.0 0.0 0.00 0.05 0.03 82 1010.8
20260904062021 51 140 0.0 0.0 0.00 0.05 0.03 82 1010.8
20260904061604 51 140 0.0 0.0 0.00 0.05 0.03 82 1010.8
20260904061104 52 140 0.0 0.0 0.00 0.05 0.03 81 1010.7
20260904060604 52 140 0.0 0.0 0.00 0.06 0.03 81 1010.8
20260904060104 52 140 0.0 0.0 0.00 0.07 0.03 81 1010.8
20260904060021 52 140 0.0 0.0 0.00 0.08 0.03 80 1010.8
20260904055603 52 140 0.0 0.0 0.00 0.08 0.03 80 1010.8
20260904055021 53 140 0.0 0.0 0.00 0.10 0.03 79 1010.8
20260904054604 53 140 0.0 0.0 0.00 0.10 0.03 79 1010.8
20260904054104 53 140 0.0 0.0 0.00 0.10 0.03 78 1010.8
20260904053604 53 140 0.0 0.0 0.00 0.11 0.03 78 1010.9
20260904053022 54 140 0.0 0.0 0.00 0.11 0.03 77 1011.0
20260904052104 54 140 0.0 0.0 0.00 0.11 0.03 76 1010.9
20260904051604 55 140 0.0 0.0 0.00 0.11 0.03 76 1010.9
20260904051104 55 140 0.0 0.0 0.00 0.11 0.03 75 1010.9
20260904051021 55 140 0.0 0.0 0.00 0.11 0.03 75 1011.0
20260904050603 55 140 0.0 0.0 0.00 0.11 0.03 75 1011.0
20260904050103 55 140 0.0 0.0 0.00 0.11 0.03 74 1011.0
20260904050022 55 140 0.0 0.0 0.00 0.11 0.03 74 1011.0
20260904045603 55 140 0.0 0.0 0.00 0.11 0.03 74 1011.0
20260904045103 55 140 0.0 0.0 0.00 0.11 0.03 74 1011.0
20260904045022 56 140 0.0 0.0 0.00 0.12 0.03 73 1010.9
20260904044603 56 140 0.0 0.0 0.00 0.12 0.03 73 1010.9
20260904044104 56 140 0.0 0.0 0.00 0.12 0.03 73 1011.0
20260904044022 56 139 0.0 1.0 0.00 0.12 0.03 73 1011.0
20260904043022 56 208 0.0 0.0 0.00 0.12 0.03 71 1011.0
20260904042604 56 208 0.0 0.0 0.00 0.12 0.03 71 1011.0
20260904042103 56 219 0.0 0.0 0.00 0.12 0.03 71 1010.9
20260904042021 57 219 0.0 0.0 0.00 0.12 0.03 71 1010.9
20260904041022 57 219 0.0 0.0 0.00 0.12 0.03 71 1010.7
20260904040604 57 219 0.0 0.0 0.00 0.12 0.03 71 1010.7
20260904040104 57 219 0.0 0.0 0.00 0.13 0.03 70 1010.7
20260904040022 57 235 0.0 0.0 0.00 0.13 0.03 70 1010.7
20260904035604 57 235 0.0 0.0 0.00 0.13 0.03 70 1010.7
20260904035104 58 257 0.0 0.0 0.00 0.13 0.03 71 1010.6
20260904035021 58 257 0.0 0.0 0.00 0.13 0.03 71 1010.5
20260904034604 58 257 0.0 0.0 0.00 0.13 0.03 71 1010.5
20260904034021 58 257 0.0 0.0 0.00 0.13 0.03 68 1010.3
20260904033604 58 257 0.0 0.0 0.00 0.13 0.03 68 1010.3
20260904032603 59 261 0.0 0.0 0.00 0.13 0.03 68 1010.2
20260904032104 59 261 0.0 0.0 0.00 0.13 0.03 67 1010.1
20260904032022 59 261 0.0 0.0 0.00 0.13 0.03 67 1010.1
20260904031604 59 261 0.0 0.0 0.00 0.13 0.03 67 1010.1
20260904031104 60 261 0.0 0.0 0.00 0.14 0.03 66 1010.1
20260904031021 60 261 0.0 0.0 0.00 0.14 0.03 67 1010.0
20260904030604 60 261 0.0 0.0 0.00 0.14 0.03 67 1010.0
20260904030104 60 261 0.0 0.0 0.00 0.15 0.03 65 1010.0
20260904030021 60 281 0.0 5.0 0.00 0.15 0.03 65 1010.0
20260904025604 60 281 0.0 5.0 0.00 0.15 0.03 65 1010.0
20260904025103 60 227 0.0 0.0 0.00 0.16 0.03 64 1010.0
20260904025022 60 225 0.0 0.0 0.00 0.16 0.03 63 1010.0
20260904024604 60 225 0.0 0.0 0.00 0.16 0.03 63 1010.0
20260904024104 61 223 0.0 0.0 0.00 0.16 0.03 61 1010.0
20260904024022 61 218 0.0 0.0 0.00 0.16 0.03 61 1010.0
20260904023604 61 218 0.0 0.0 0.00 0.16 0.03 61 1010.0
20260904023023 61 211 0.0 0.0 0.00 0.16 0.03 62 1009.9
20260904022603 61 211 0.0 0.0 0.00 0.16 0.03 62 1009.9
20260904022103 61 243 0.0 0.0 0.00 0.16 0.03 63 1009.9
20260904022022 62 233 0.0 3.0 0.00 0.17 0.03 63 1009.8
20260904021103 62 247 0.0 0.0 0.00 0.17 0.03 61 1009.8
20260904021021 62 252 0.0 0.0 0.00 0.18 0.03 61 1009.8
20260904020603 62 252 0.0 0.0 0.00 0.18 0.03 61 1009.8
20260904020104 62 252 0.0 0.0 0.00 0.18 0.03 57 1009.8
20260904020024 62 253 0.0 0.0 0.00 0.18 0.03 59 1009.8
20260904015603 62 253 0.0 0.0 0.00 0.18 0.03 59 1009.8
20260904015103 63 254 0.0 2.0 0.00 0.18 0.03 59 1009.8
20260904015021 63 273 0.0 3.0 0.00 0.18 0.03 59 1009.9
20260904014604 63 273 0.0 3.0 0.00 0.18 0.03 59 1009.9
20260904014103 63 262 0.0 0.0 0.00 0.18 0.03 58 1009.9
20260904014022 63 261 0.0 0.0 0.00 0.18 0.03 57 1009.9
20260904013604 63 261 0.0 0.0 0.00 0.18 0.03 57 1009.9
20260904013104 63 214 0.0 1.0 0.00 0.18 0.03 57 1009.9
20260904013024 64 228 0.0 2.0 0.00 0.18 0.03 58 1009.9
20260904012604 64 228 0.0 2.0 0.00 0.18 0.03 58 1009.9
20260904012104 64 229 0.0 0.0 0.00 0.18 0.03 60 1009.8
20260904012022 64 223 0.0 2.0 0.00 0.19 0.03 57 1009.8
20260904011104 64 231 1.0 5.0 0.00 0.19 0.03 53 1009.7
20260904011021 64 231 2.0 7.0 0.00 0.19 0.03 54 1009.7
20260904010604 64 231 2.0 7.0 0.00 0.19 0.03 54 1009.7
20260904010104 64 235 1.0 7.0 0.00 0.19 0.03 54 1009.7
20260904010023 64 224 2.0 7.0 0.00 0.19 0.03 53 1009.7
20260904005603 64 224 2.0 7.0 0.00 0.19 0.03 53 1009.7
20260904005104 64 224 2.0 3.0 0.00 0.20 0.03 55 1009.7
20260904005022 64 216 0.0 7.0 0.00 0.21 0.03 55 1009.6
20260904004604 64 216 0.0 7.0 0.00 0.21 0.03 55 1009.6
20260904004103 64 245 3.0 8.0 0.00 0.21 0.03 55 1009.7
20260904004022 64 228 1.0 3.0 0.00 0.22 0.03 56 1009.7
20260904003604 64 228 1.0 3.0 0.00 0.22 0.03 56 1009.7
20260904003104 64 228 0.0 3.0 0.00 0.23 0.03 58 1009.7
20260904003024 63 296 0.0 2.0 0.00 0.24 0.03 58 1009.6
20260904002604 63 296 0.0 2.0 0.00 0.24 0.03 58 1009.6
20260904002104 63 312 0.0 0.0 0.00 0.25 0.03 65 1009.7
20260904002021 64 313 0.0 1.0 0.00 0.26 0.03 62 1009.7
20260904001604 64 313 0.0 1.0 0.00 0.26 0.03 62 1009.7
20260904001104 64 221 0.0 2.0 0.00 0.27 0.03 60 1009.8
20260904001022 64 221 1.0 3.0 0.00 0.28 0.03 58 1009.8
20260904000604 64 221 1.0 3.0 0.00 0.28 0.03 58 1009.8
20260904000104 64 223 0.0 6.0 0.00 0.29 0.03 59 1009.8
20260904000023 64 254 2.0 6.0 0.00 0.29 0.03 60 1009.9
20260903235604 64 254 2.0 6.0 0.00 0.29 0.03 60 1009.9
20260903235104 64 197 1.0 3.0 0.00 0.30 0.03 60 1009.9
20260903234104 64 126 1.0 3.0 0.00 0.32 0.03 63 1009.9
20260903233604 63 91 3.0 7.0 0.00 0.33 0.03 64 1010.0
20260903233104 63 116 3.0 7.0 0.00 0.34 0.03 66 1010.1
20260903233024 63 74 3.0 8.0 0.00 0.35 0.03 67 1010.1
20260903232604 63 74 3.0 8.0 0.00 0.35 0.03 67 1010.1
20260903232104 63 131 3.0 8.0 0.00 0.36 0.03 66 1010.3
20260903231604 63 114 2.0 5.0 0.00 0.38 0.03 67 1010.4
20260903231104 63 152 2.0 5.0 0.00 0.39 0.03 66 1010.4
20260903231022 63 147 1.0 7.0 0.00 0.40 0.03 68 1010.4
20260903230604 63 147 1.0 7.0 0.00 0.40 0.03 68 1010.4
20260903230103 63 150 0.0 7.0 0.00 0.41 0.03 67 1010.4
20260903230023 63 121 3.0 8.0 0.00 0.42 0.03 67 1010.5
20260903225103 63 138 1.0 5.0 0.00 0.43 0.03 67 1010.6
20260903224603 63 127 3.0 7.0 0.00 0.43 0.03 66 1010.4
20260903224103 63 131 1.0 5.0 0.00 0.44 0.03 68 1010.5
20260903224023 62 152 1.0 3.0 0.00 0.44 0.03 69 1010.5
20260903223604 62 152 1.0 3.0 0.00 0.44 0.03 69 1010.5
20260903223104 62 158 0.0 0.0 0.00 0.45 0.03 72 1010.7
20260903223024 62 159 0.0 2.0 0.00 0.45 0.03 72 1010.7
20260903222603 62 159 0.0 2.0 0.00 0.45 0.03 72 1010.7
20260903222021 62 113 0.0 2.0 0.00 0.45 0.03 70 1010.8
20260903221104 61 99 0.0 3.0 0.00 0.45 0.03 71 1010.8
20260903221022 61 128 3.0 8.0 0.00 0.46 0.03 73 1010.6
20260903220604 61 128 3.0 8.0 0.00 0.46 0.03 73 1010.6
20260903220104 60 94 0.0 3.0 0.00 0.47 0.03 74 1010.8
20260903220023 60 71 1.0 3.0 0.00 0.47 0.03 75 1010.9
20260903215603 60 71 1.0 3.0 0.00 0.47 0.03 75 1010.9
20260903215103 60 338 0.0 0.0 0.00 0.47 0.03 76 1011.0
20260903215022 60 338 0.0 0.0 0.00 0.48 0.03 77 1011.0
20260903214604 60 338 0.0 0.0 0.00 0.48 0.03 77 1011.0
20260903214104 60 337 0.0 0.0 0.00 0.49 0.03 77 1011.1
20260903214022 60 336 0.0 0.0 0.00 0.50 0.03 77 1011.2
20260903213604 60 336 0.0 0.0 0.00 0.50 0.03 77 1011.2
20260903213024 60 345 0.0 0.0 0.00 0.50 0.03 77 1011.1
20260903212604 60 345 0.0 0.0 0.00 0.50 0.03 77 1011.1